This is the latest recevied weather packets stored in our database for station/object N2OCK. If no packets are shown the sender has not sent any weather packets the latest 1 day(s).
| Time | Temp. | Humidity | Pressure | Rain* | Wind** | Luminosity | Snow |
|---|---|---|---|---|---|---|---|
| 1778010909 | 20.56° C | 64% | 1009.6 hPa | 0 mm | 0.89 m/s, 164° | 507 W/m² | - |
| 1778010607 | 20.56° C | 64% | 1009.6 hPa | 0 mm | 1.79 m/s, 245° | 510 W/m² | - |
| 1778010304 | 20.56° C | 63% | 1009.8 hPa | 0 mm | 1.79 m/s, 219° | 528 W/m² | - |
| 1778010004 | 20.56° C | 64% | 1009.6 hPa | 0 mm | 1.34 m/s, 267° | 540 W/m² | - |
| 1778009702 | 20.56° C | 63% | 1009.7 hPa | 0 mm | 2.68 m/s, 203° | 535 W/m² | - |
| 1778009399 | 20.56° C | 63% | 1009.9 hPa | 0 mm | 3.13 m/s, 190° | 520 W/m² | - |
| 1778009098 | 20.56° C | 63% | 1010.1 hPa | 0 mm | 1.79 m/s, 208° | 562 W/m² | - |
| 1778008795 | 20.56° C | 63% | 1010.1 hPa | 0 mm | 2.68 m/s, 197° | 582 W/m² | - |
| 1778008493 | 21.11° C | 62% | 1010.2 hPa | 0 mm | 2.68 m/s, 190° | 595 W/m² | - |
| 1778008190 | 20.56° C | 64% | 1010.1 hPa | 0 mm | 0.89 m/s, 187° | 603 W/m² | - |
| 1778007885 | 20.56° C | 64% | 1010.3 hPa | 0 mm | 3.58 m/s, 189° | 612 W/m² | - |
| 1778007581 | 20.56° C | 65% | 1010.5 hPa | 0 mm | 1.34 m/s, 229° | 621 W/m² | - |
| 1778007278 | 20.56° C | 66% | 1010.3 hPa | 0 mm | 1.34 m/s, 204° | 629 W/m² | - |
| 1778006974 | 21.11° C | 65% | 1010.6 hPa | 0 mm | 0.89 m/s, 214° | 640 W/m² | - |
| 1778006671 | 20.56° C | 64% | 1010.5 hPa | 0 mm | 0.89 m/s, 238° | 647 W/m² | - |
| 1778006368 | 21.11° C | 64% | 1010.5 hPa | 0 mm | 1.79 m/s, 213° | 656 W/m² | - |
| 1778006065 | 21.11° C | 63% | 1010.7 hPa | 0 mm | 2.24 m/s, 297° | 663 W/m² | - |
| 1778005762 | 21.11° C | 63% | 1010.6 hPa | 0 mm | 1.79 m/s, 170° | 670 W/m² | - |
| 1778005458 | 21.11° C | 64% | 1010.5 hPa | 0 mm | 0.89 m/s, 226° | 677 W/m² | - |
| 1778005155 | 21.11° C | 64% | 1010.7 hPa | 0 mm | 0.89 m/s, 219° | 682 W/m² | - |
| 1778004852 | 21.11° C | 65% | 1010.5 hPa | 0 mm | 0.89 m/s, 196° | 689 W/m² | - |
| 1778004549 | 20.56° C | 64% | 1010.8 hPa | 0 mm | 1.34 m/s, 229° | 695 W/m² | - |
| 1778004246 | 21.11° C | 66% | 1010.9 hPa | 0 mm | 1.34 m/s, 250° | 701 W/m² | - |
| 1778003942 | 21.67° C | 64% | 1010.8 hPa | 0 mm | 0.89 m/s, 239° | 705 W/m² | - |
| 1778003638 | 20.56° C | 66% | 1010.8 hPa | 0 mm | 0.45 m/s, 225° | 708 W/m² | - |
* Rain latest hour (hover to see other rain measurements)
** Current wind speed in m/s (hover to see current wind gust speed)